Time,TemperatureF,DewpointF,PressureIn,WindDirection,WindDirectionDegrees,WindSpeedMPH,WindSpeedGustMPH,Humidity,HourlyPrecipIn,Conditions,Clouds,dailyrainin,SoftwareType,DateUTC
2013-01-18 00:03:00,31.5,27.8,30.50,NNE,27,1.2,0.0,86,0.00,RA,,0.00,WeatherDisplay:10.37,2013-01-18 06:03:00,
2013-01-18 00:08:00,31.3,27.6,30.51,NNE,27,0.0,0.0,86,0.00,RA,,0.00,WeatherDisplay:10.37,2013-01-18 06:08:00,
2013-01-18 00:13:00,31.6,27.9,30.51,NNE,27,0.0,0.0,86,0.00,CLR,,0.00,WeatherDisplay:10.37,2013-01-18 06:13:00,
2013-01-18 00:18:00,31.8,28.1,30.51,NNE,27,0.0,0.0,86,0.00,CLR,,0.00,WeatherDisplay:10.37,2013-01-18 06:18:00,
2013-01-18 00:23:00,31.8,28.1,30.52,NNE,27,0.0,0.0,86,0.00,CLR,,0.00,WeatherDisplay:10.37,2013-01-18 06:23:00,
2013-01-18 00:28:00,31.6,27.9,30.52,NNE,27,0.0,0.0,86,0.00,CLR,,0.00,WeatherDisplay:10.37,2013-01-18 06:28:00,
2013-01-18 00:33:00,31.3,27.6,30.52,NNE,27,0.0,0.0,86,0.00,CLR,,0.00,WeatherDisplay:10.37,2013-01-18 06:33:00,
2013-01-18 00:38:00,31.2,27.5,30.52,NNE,27,0.0,0.0,86,0.00,CLR,,0.00,WeatherDisplay:10.37,2013-01-18 06:38:00,
2013-01-18 00:43:00,31.0,27.6,30.52,NNE,27,0.0,0.0,87,0.00,CLR,,0.00,WeatherDisplay:10.37,2013-01-18 06:43:00,
2013-01-18 00:45:00,51.1,24.4,30.59,ESE,110,0.0,3.0,35,0.00,CLR,,0.00,WeatherDisplay:10.37,2013-01-18 06:45:00,
2013-01-18 00:48:00,30.9,27.8,30.53,NNE,27,0.0,0.0,88,0.00,CLR,,0.00,WeatherDisplay:10.37,2013-01-18 06:48:00,
2013-01-18 00:53:00,30.7,27.6,30.53,NNE,27,0.0,0.0,88,0.00,CLR,,0.00,WeatherDisplay:10.37,2013-01-18 06:53:00,
2013-01-18 00:55:00,51.3,21.6,30.59,NNE,25,0.0,1.0,31,0.00,CLR,,0.00,WeatherDisplay:10.37,2013-01-18 06:55:00,
2013-01-18 00:58:00,30.6,27.5,30.53,NNE,27,0.0,0.0,88,0.00,CLR,,0.00,WeatherDisplay:10.37,2013-01-18 06:58:00,
2013-01-18 01:00:00,51.3,24.5,30.59,North,0,0.0,2.0,35,0.00,CLR,,0.00,WeatherDisplay:10.37,2013-01-18 07:00:00,
2013-01-18 01:03:00,30.7,27.8,30.54,NNE,27,0.0,0.0,89,0.00,CLR,,0.00,WeatherDisplay:10.37,2013-01-18 07:03:00,
2013-01-18 01:05:00,51.7,19.6,30.59,North,0,0.0,2.0,28,0.00,CLR,,0.00,WeatherDisplay:10.37,2013-01-18 07:05:00,
2013-01-18 01:08:00,30.7,27.8,30.54,NNE,23,3.0,3.0,89,0.00,CLR,,0.00,WeatherDisplay:10.37,2013-01-18 07:08:00,
2013-01-18 01:10:00,52.2,24.6,30.59,North,0,0.0,0.0,34,0.00,CLR,,0.00,WeatherDisplay:10.37,2013-01-18 07:10:00,
2013-01-18 01:13:00,31.3,28.4,30.54,NNE,23,1.2,1.2,89,0.00,CLR,,0.00,WeatherDisplay:10.37,2013-01-18 07:13:00,
2013-01-18 01:15:00,52.5,20.3,30.59,North,0,0.0,0.0,28,0.00,CLR,,0.00,WeatherDisplay:10.37,2013-01-18 07:15:00,
2013-01-18 01:18:00,31.6,28.5,30.54,NNE,23,0.0,0.0,88,0.00,CLR,,0.00,WeatherDisplay:10.37,2013-01-18 07:18:00,
2013-01-18 01:20:00,52.0,19.9,30.59,North,0,0.0,5.0,28,0.00,CLR,,0.00,WeatherDisplay:10.37,2013-01-18 07:20:00,
2013-01-18 01:23:00,32.4,28.7,30.54,NNE,24,2.3,2.3,86,0.00,CLR,,0.00,WeatherDisplay:10.37,2013-01-18 07:23:00,
2013-01-18 01:25:00,51.9,15.2,30.59,North,0,0.0,3.0,23,0.00,CLR,,0.00,WeatherDisplay:10.37,2013-01-18 07:25:00,
2013-01-18 01:28:00,32.8,28.8,30.55,NNE,24,0.0,0.1,85,0.00,CLR,,0.00,WeatherDisplay:10.37,2013-01-18 07:28:00,
2013-01-18 01:30:00,51.9,14.2,30.59,North,0,0.0,1.0,22,0.00,CLR,,0.00,WeatherDisplay:10.37,2013-01-18 07:30:00,
2013-01-18 01:33:00,32.7,28.4,30.55,NNE,24,0.0,0.0,84,0.00,CLR,,0.00,WeatherDisplay:10.37,2013-01-18 07:33:00,
2013-01-18 01:35:00,52.0,16.3,30.59,North,0,0.0,0.0,24,0.00,CLR,,0.00,WeatherDisplay:10.37,2013-01-18 07:35:00,
2013-01-18 01:38:00,32.5,28.2,30.55,NNE,24,0.0,0.0,84,0.00,CLR,,0.00,WeatherDisplay:10.37,2013-01-18 07:38:00,
2013-01-18 01:40:00,52.8,18.8,30.59,North,0,0.0,1.0,26,0.00,CLR,,0.00,WeatherDisplay:10.37,2013-01-18 07:40:00,
2013-01-18 01:43:00,32.2,28.2,30.55,NNE,24,0.0,0.0,85,0.00,CLR,,0.00,WeatherDisplay:10.37,2013-01-18 07:43:00,
2013-01-18 01:48:00,31.9,27.9,30.55,NNE,24,0.0,0.0,85,0.00,CLR,,0.00,WeatherDisplay:10.37,2013-01-18 07:48:00,
2013-01-18 01:50:00,52.8,16.9,30.58,North,0,0.0,1.0,24,0.00,CLR,,0.00,WeatherDisplay:10.37,2013-01-18 07:50:00,
2013-01-18 01:53:00,31.6,27.6,30.55,NNE,24,0.0,0.0,85,0.00,CLR,,0.00,WeatherDisplay:10.37,2013-01-18 07:53:00,
2013-01-18 01:55:00,52.8,16.9,30.58,North,0,0.0,1.0,24,0.00,CLR,,0.00,WeatherDisplay:10.37,2013-01-18 07:55:00,
2013-01-18 01:58:00,31.3,27.6,30.55,NNE,24,0.0,0.0,86,0.00,CLR,,0.00,WeatherDisplay:10.37,2013-01-18 07:58:00,
2013-01-18 02:00:00,52.9,14.0,30.58,North,0,0.0,3.0,21,0.00,CLR,,0.00,WeatherDisplay:10.37,2013-01-18 08:00:00,
2013-01-18 02:03:00,31.2,27.5,30.56,NNE,24,0.0,0.0,86,0.00,CLR,,0.00,WeatherDisplay:10.37,2013-01-18 08:03:00,
2013-01-18 02:05:00,52.9,14.0,30.58,North,0,0.0,3.0,21,0.00,CLR,,0.00,WeatherDisplay:10.37,2013-01-18 08:05:00,
2013-01-18 02:08:00,30.9,27.2,30.55,NNE,24,0.0,0.0,86,0.00,CLR,,0.00,WeatherDisplay:10.37,2013-01-18 08:08:00,
2013-01-18 02:10:00,52.9,12.9,30.58,North,0,0.0,3.0,20,0.00,CLR,,0.00,WeatherDisplay:10.37,2013-01-18 08:10:00,
2013-01-18 02:13:00,30.6,26.9,30.55,NNE,24,0.0,0.0,86,0.00,CLR,,0.00,WeatherDisplay:10.37,2013-01-18 08:13:00,
2013-01-18 02:18:00,30.3,26.9,30.56,NNE,24,0.0,0.0,87,0.00,CLR,,0.00,WeatherDisplay:10.37,2013-01-18 08:18:00,
2013-01-18 02:20:00,52.2,13.4,30.58,North,0,0.0,3.0,21,0.00,CLR,,0.00,WeatherDisplay:10.37,2013-01-18 08:20:00,
2013-01-18 02:23:00,30.0,26.9,30.56,NNE,24,0.0,0.0,88,0.00,CLR,,0.00,WeatherDisplay:10.37,2013-01-18 08:23:00,
2013-01-18 02:25:00,52.2,13.4,30.58,North,0,0.0,3.0,21,0.00,CLR,,0.00,WeatherDisplay:10.37,2013-01-18 08:25:00,
2013-01-18 02:28:00,29.8,26.7,30.56,NNE,24,0.0,0.0,88,0.00,CLR,,0.00,WeatherDisplay:10.37,2013-01-18 08:28:00,
2013-01-18 02:33:00,29.7,26.9,30.56,NNE,24,0.0,0.0,89,0.00,CLR,,0.00,WeatherDisplay:10.37,2013-01-18 08:33:00,
2013-01-18 02:35:00,51.4,15.8,30.58,North,0,0.0,2.0,24,0.00,CLR,,0.00,WeatherDisplay:10.37,2013-01-18 08:35:00,
2013-01-18 02:38:00,29.5,26.7,30.56,NNE,24,0.0,0.0,89,0.00,CLR,,0.00,WeatherDisplay:10.37,2013-01-18 08:38:00,
2013-01-18 02:43:00,29.4,26.6,30.56,NNE,24,0.0,0.0,89,0.00,CLR,,0.00,WeatherDisplay:10.37,2013-01-18 08:43:00,
2013-01-18 02:45:00,51.3,17.5,30.58,North,0,0.0,1.0,26,0.00,CLR,,0.00,WeatherDisplay:10.37,2013-01-18 08:45:00,
2013-01-18 02:48:00,29.3,26.5,30.56,NNE,24,0.0,0.0,89,0.00,CLR,,0.00,WeatherDisplay:10.37,2013-01-18 08:48:00,
2013-01-18 02:50:00,51.3,17.5,30.58,North,0,0.0,1.0,26,0.00,CLR,,0.00,WeatherDisplay:10.37,2013-01-18 08:50:00,
2013-01-18 02:53:00,29.1,26.3,30.56,NNE,24,0.0,0.0,89,0.00,CLR,,0.00,WeatherDisplay:10.37,2013-01-18 08:53:00,
2013-01-18 02:55:00,51.0,18.1,30.58,North,0,0.0,0.0,27,0.00,CLR,,0.00,WeatherDisplay:10.37,2013-01-18 08:55:00,
2013-01-18 02:58:00,29.0,26.2,30.56,NNE,24,0.0,0.0,89,0.00,CLR,,0.00,WeatherDisplay:10.37,2013-01-18 08:58:00,
2013-01-18 03:00:00,50.8,18.8,30.58,North,0,0.0,1.0,28,0.00,CLR,,0.00,WeatherDisplay:10.37,2013-01-18 09:00:00,
2013-01-18 03:03:00,28.8,26.2,30.56,NNE,24,0.0,0.0,90,0.00,CLR,,0.00,WeatherDisplay:10.37,2013-01-18 09:03:00,
2013-01-18 03:08:00,28.7,26.1,30.56,NNE,24,0.0,0.0,90,0.00,CLR,,0.00,WeatherDisplay:10.37,2013-01-18 09:08:00,
2013-01-18 03:10:00,50.4,20.1,30.57,North,0,0.0,1.0,30,0.00,CLR,,0.00,WeatherDisplay:10.37,2013-01-18 09:10:00,
2013-01-18 03:13:00,28.5,25.9,30.56,NNE,24,0.0,0.0,90,0.00,CLR,,0.00,WeatherDisplay:10.37,2013-01-18 09:13:00,
2013-01-18 03:15:00,50.4,20.1,30.57,North,0,0.0,1.0,30,0.00,CLR,,0.00,WeatherDisplay:10.37,2013-01-18 09:15:00,
2013-01-18 03:18:00,28.7,26.4,30.56,NNE,24,0.0,0.0,91,0.00,CLR,,0.00,WeatherDisplay:10.37,2013-01-18 09:18:00,
2013-01-18 03:20:00,49.6,23.0,30.57,North,0,0.0,0.0,35,0.00,CLR,,0.00,WeatherDisplay:10.37,2013-01-18 09:20:00,
2013-01-18 03:23:00,28.7,26.4,30.55,NNE,24,0.0,0.0,91,0.00,CLR,,0.00,WeatherDisplay:10.37,2013-01-18 09:23:00,
2013-01-18 03:25:00,49.1,25.8,30.57,North,0,0.0,0.0,40,0.00,CLR,,0.00,WeatherDisplay:10.37,2013-01-18 09:25:00,
2013-01-18 03:28:00,28.7,26.4,30.55,NNE,24,0.0,0.0,91,0.00,CLR,,0.00,WeatherDisplay:10.37,2013-01-18 09:28:00,
2013-01-18 03:30:00,48.2,27.8,30.57,North,0,0.0,0.0,45,0.00,CLR,,0.00,WeatherDisplay:10.37,2013-01-18 09:30:00,
2013-01-18 03:33:00,28.7,26.4,30.55,NNE,24,0.0,0.0,91,0.00,CLR,,0.00,WeatherDisplay:10.37,2013-01-18 09:33:00,
2013-01-18 03:35:00,47.4,28.2,30.57,North,0,0.0,0.0,47,0.00,CLR,,0.00,WeatherDisplay:10.37,2013-01-18 09:35:00,
2013-01-18 03:38:00,28.8,26.8,30.55,NNE,24,0.0,0.0,92,0.00,CLR,,0.00,WeatherDisplay:10.37,2013-01-18 09:38:00,
2013-01-18 03:40:00,46.7,29.0,30.57,North,0,0.0,0.0,50,0.00,CLR,,0.00,WeatherDisplay:10.37,2013-01-18 09:40:00,
2013-01-18 03:43:00,28.8,26.8,30.55,NNE,24,0.0,0.0,92,0.00,CLR,,0.00,WeatherDisplay:10.37,2013-01-18 09:43:00,
2013-01-18 03:45:00,46.1,30.4,30.57,North,0,0.0,0.0,54,0.00,CLR,,0.00,WeatherDisplay:10.37,2013-01-18 09:45:00,
2013-01-18 03:48:00,28.8,26.8,30.55,NNE,24,0.0,0.0,92,0.00,CLR,,0.00,WeatherDisplay:10.37,2013-01-18 09:48:00,
2013-01-18 03:50:00,45.4,29.7,30.57,North,0,0.0,0.0,54,0.00,CLR,,0.00,WeatherDisplay:10.37,2013-01-18 09:50:00,
2013-01-18 03:53:00,29.0,27.0,30.55,NNE,24,0.0,0.0,92,0.00,CLR,,0.00,WeatherDisplay:10.37,2013-01-18 09:53:00,
2013-01-18 03:55:00,44.6,30.3,30.57,North,0,0.0,0.0,57,0.00,CLR,,0.00,WeatherDisplay:10.37,2013-01-18 09:55:00,
2013-01-18 03:58:00,29.0,27.0,30.55,NNE,24,0.0,0.0,92,0.00,CLR,,0.00,WeatherDisplay:10.37,2013-01-18 09:58:00,
2013-01-18 04:00:00,43.9,30.5,30.57,North,0,0.0,0.0,59,0.00,CLR,,0.00,WeatherDisplay:10.37,2013-01-18 10:00:00,
2013-01-18 04:03:00,29.0,27.0,30.55,NNE,24,0.0,0.0,92,0.00,CLR,,0.00,WeatherDisplay:10.37,2013-01-18 10:03:00,
2013-01-18 04:05:00,43.2,30.2,30.57,North,0,0.0,0.0,60,0.00,CLR,,0.00,WeatherDisplay:10.37,2013-01-18 10:05:00,
2013-01-18 04:08:00,29.0,27.0,30.55,NNE,24,0.0,0.0,92,0.00,CLR,,0.00,WeatherDisplay:10.37,2013-01-18 10:08:00,
2013-01-18 04:10:00,42.5,30.0,30.57,North,0,0.0,0.0,61,0.00,CLR,,0.00,WeatherDisplay:10.37,2013-01-18 10:10:00,
2013-01-18 04:13:00,29.1,27.3,30.55,NNE,24,0.0,0.0,93,0.00,CLR,,0.00,WeatherDisplay:10.37,2013-01-18 10:13:00,
2013-01-18 04:15:00,41.9,30.2,30.57,North,0,0.0,0.0,63,0.00,CLR,,0.00,WeatherDisplay:10.37,2013-01-18 10:15:00,
2013-01-18 04:18:00,29.4,27.6,30.55,NNE,24,0.0,0.0,93,0.00,CLR,,0.00,WeatherDisplay:10.37,2013-01-18 10:18:00,
2013-01-18 04:20:00,41.3,30.0,30.57,North,0,0.0,0.0,64,0.00,CLR,,0.00,WeatherDisplay:10.37,2013-01-18 10:20:00,
2013-01-18 04:23:00,29.5,27.7,30.55,NNE,24,0.0,0.0,93,0.00,CLR,,0.00,WeatherDisplay:10.37,2013-01-18 10:23:00,
2013-01-18 04:25:00,40.8,29.9,30.57,North,0,0.0,0.0,65,0.00,CLR,,0.00,WeatherDisplay:10.37,2013-01-18 10:25:00,
2013-01-18 04:28:00,29.5,27.5,30.55,NNE,24,0.0,0.0,92,0.00,CLR,,0.00,WeatherDisplay:10.37,2013-01-18 10:28:00,
2013-01-18 04:30:00,40.2,30.1,30.57,North,0,0.0,0.0,67,0.00,CLR,,0.00,WeatherDisplay:10.37,2013-01-18 10:30:00,
2013-01-18 04:33:00,29.5,27.5,30.55,NNE,24,0.0,0.0,92,0.00,CLR,,0.00,WeatherDisplay:10.37,2013-01-18 10:33:00,
2013-01-18 04:35:00,39.6,29.5,30.58,North,0,0.0,0.0,67,0.00,CLR,,0.00,WeatherDisplay:10.37,2013-01-18 10:35:00,
2013-01-18 04:38:00,29.4,27.4,30.56,NNE,24,0.0,0.0,92,0.00,CLR,,0.00,WeatherDisplay:10.37,2013-01-18 10:38:00,
2013-01-18 04:40:00,39.2,29.5,30.58,North,0,0.0,0.0,68,0.00,CLR,,0.00,WeatherDisplay:10.37,2013-01-18 10:40:00,
2013-01-18 04:43:00,29.5,27.7,30.56,NNE,24,0.0,0.0,93,0.00,CLR,,0.00,WeatherDisplay:10.37,2013-01-18 10:43:00,
2013-01-18 04:45:00,38.8,29.8,30.58,North,0,0.0,0.0,70,0.00,CLR,,0.00,WeatherDisplay:10.37,2013-01-18 10:45:00,
2013-01-18 04:48:00,29.5,27.7,30.57,NNE,24,0.0,0.0,93,0.00,CLR,,0.00,WeatherDisplay:10.37,2013-01-18 10:48:00,
2013-01-18 04:50:00,38.5,29.6,30.58,North,0,0.0,0.0,70,0.00,CLR,,0.00,WeatherDisplay:10.37,2013-01-18 10:50:00,
2013-01-18 04:53:00,29.4,27.4,30.57,NNE,24,0.0,0.0,92,0.00,CLR,,0.00,WeatherDisplay:10.37,2013-01-18 10:53:00,
2013-01-18 04:55:00,38.0,29.4,30.58,North,0,0.0,0.0,71,0.00,CLR,,0.00,WeatherDisplay:10.37,2013-01-18 10:55:00,
2013-01-18 04:58:00,29.3,27.3,30.57,NNE,24,0.0,0.0,92,0.00,CLR,,0.00,WeatherDisplay:10.37,2013-01-18 10:58:00,
2013-01-18 05:00:00,37.8,29.9,30.58,North,0,0.0,0.0,73,0.00,CLR,,0.00,WeatherDisplay:10.37,2013-01-18 11:00:00,
2013-01-18 05:03:00,29.3,27.5,30.57,NNE,24,0.0,0.0,93,0.00,CLR,,0.00,WeatherDisplay:10.37,2013-01-18 11:03:00,
2013-01-18 05:05:00,37.5,30.0,30.58,North,0,0.0,0.0,74,0.00,CLR,,0.00,WeatherDisplay:10.37,2013-01-18 11:05:00,
2013-01-18 05:08:00,29.3,27.5,30.58,NNE,24,0.0,0.0,93,0.00,CLR,,0.00,WeatherDisplay:10.37,2013-01-18 11:08:00,
2013-01-18 05:10:00,37.2,29.7,30.58,North,0,0.0,0.0,74,0.00,CLR,,0.00,WeatherDisplay:10.37,2013-01-18 11:10:00,
2013-01-18 05:13:00,29.4,27.6,30.58,NNE,24,0.0,0.0,93,0.00,CLR,,0.00,WeatherDisplay:10.37,2013-01-18 11:13:00,
2013-01-18 05:15:00,36.9,29.7,30.58,North,0,0.0,0.0,75,0.00,CLR,,0.00,WeatherDisplay:10.37,2013-01-18 11:15:00,
2013-01-18 05:18:00,29.3,27.5,30.58,NNE,24,0.0,0.0,93,0.00,CLR,,0.00,WeatherDisplay:10.37,2013-01-18 11:18:00,
2013-01-18 05:20:00,36.6,29.4,30.58,North,0,0.0,0.0,75,0.00,CLR,,0.00,WeatherDisplay:10.37,2013-01-18 11:20:00,
2013-01-18 05:23:00,29.1,27.3,30.58,NNE,24,0.0,0.0,93,0.00,CLR,,0.00,WeatherDisplay:10.37,2013-01-18 11:23:00,
2013-01-18 05:25:00,36.5,29.7,30.58,North,0,0.0,0.0,76,0.00,CLR,,0.00,WeatherDisplay:10.37,2013-01-18 11:25:00,
2013-01-18 05:28:00,29.0,27.2,30.58,NNE,24,0.0,0.0,93,0.00,CLR,,0.00,WeatherDisplay:10.37,2013-01-18 11:28:00,
2013-01-18 05:30:00,36.3,29.8,30.58,North,0,0.0,0.0,77,0.00,CLR,,0.00,WeatherDisplay:10.37,2013-01-18 11:30:00,
2013-01-18 05:33:00,28.7,26.7,30.58,NNE,24,0.0,0.0,92,0.00,CLR,,0.00,WeatherDisplay:10.37,2013-01-18 11:33:00,
2013-01-18 05:35:00,36.0,29.5,30.59,North,0,0.0,0.0,77,0.00,CLR,,0.00,WeatherDisplay:10.37,2013-01-18 11:35:00,
2013-01-18 05:38:00,28.5,26.5,30.59,NNE,24,0.0,0.0,92,0.00,CLR,,0.00,WeatherDisplay:10.37,2013-01-18 11:38:00,
2013-01-18 05:40:00,35.9,30.0,30.59,North,0,0.0,0.0,79,0.00,CLR,,0.00,WeatherDisplay:10.37,2013-01-18 11:40:00,
2013-01-18 05:43:00,28.2,26.2,30.59,NNE,24,0.0,0.0,92,0.00,CLR,,0.00,WeatherDisplay:10.37,2013-01-18 11:43:00,
2013-01-18 05:45:00,35.8,29.9,30.59,North,0,0.0,0.0,79,0.00,CLR,,0.00,WeatherDisplay:10.37,2013-01-18 11:45:00,
2013-01-18 05:48:00,28.1,26.3,30.59,NNE,24,0.0,0.0,93,0.00,CLR,,0.00,WeatherDisplay:10.37,2013-01-18 11:48:00,
2013-01-18 05:50:00,35.5,29.3,30.59,North,0,0.0,0.0,78,0.00,CLR,,0.00,WeatherDisplay:10.37,2013-01-18 11:50:00,
2013-01-18 05:53:00,27.9,26.1,30.59,NNE,24,0.0,0.0,93,0.00,CLR,,0.00,WeatherDisplay:10.37,2013-01-18 11:53:00,
2013-01-18 05:55:00,35.2,29.0,30.59,North,0,0.0,0.0,78,0.00,CLR,,0.00,WeatherDisplay:10.37,2013-01-18 11:55:00,
2013-01-18 05:58:00,27.9,26.1,30.59,NNE,24,0.0,0.0,93,0.00,CLR,,0.00,WeatherDisplay:10.37,2013-01-18 11:58:00,
2013-01-18 06:00:00,34.7,28.9,30.59,ESE,118,0.0,0.0,79,0.00,CLR,,0.00,WeatherDisplay:10.37,2013-01-18 12:00:00,
2013-01-18 06:03:00,27.8,26.0,30.59,NNE,24,0.0,0.0,93,0.00,CLR,,0.00,WeatherDisplay:10.37,2013-01-18 12:03:00,
2013-01-18 06:05:00,34.7,28.9,30.59,North,0,0.0,0.0,79,0.00,CLR,,0.00,WeatherDisplay:10.37,2013-01-18 12:05:00,
2013-01-18 06:08:00,27.6,25.8,30.59,NNE,24,0.0,0.0,93,0.00,CLR,,0.00,WeatherDisplay:10.37,2013-01-18 12:08:00,
2013-01-18 06:13:00,27.5,25.7,30.60,NNE,24,0.0,0.0,93,0.00,CLR,,0.00,WeatherDisplay:10.37,2013-01-18 12:13:00,
2013-01-18 06:18:00,27.6,25.8,30.60,NNE,24,0.0,0.0,93,0.00,CLR,,0.00,WeatherDisplay:10.37,2013-01-18 12:18:00,
2013-01-18 06:23:00,27.6,25.8,30.60,NNE,24,0.0,0.0,93,0.00,CLR,,0.00,WeatherDisplay:10.37,2013-01-18 12:23:00,
2013-01-18 06:28:00,27.6,25.8,30.60,NNE,24,0.0,0.0,93,0.00,CLR,,0.00,WeatherDisplay:10.37,2013-01-18 12:28:00,
2013-01-18 06:33:00,27.6,25.8,30.61,NNE,24,0.0,0.0,93,0.00,CLR,,0.00,WeatherDisplay:10.37,2013-01-18 12:33:00,
2013-01-18 06:38:00,27.6,25.8,30.61,NNE,24,0.0,0.0,93,0.00,CLR,,0.00,WeatherDisplay:10.37,2013-01-18 12:38:00,
2013-01-18 06:43:00,27.5,25.7,30.62,NNE,24,0.0,0.0,93,0.00,CLR,,0.00,WeatherDisplay:10.37,2013-01-18 12:43:00,
2013-01-18 06:48:00,27.3,25.5,30.62,NNE,24,0.0,0.0,93,0.00,CLR,,0.00,WeatherDisplay:10.37,2013-01-18 12:48:00,
2013-01-18 06:53:00,27.2,25.4,30.62,NNE,24,0.0,0.0,93,0.00,CLR,,0.00,WeatherDisplay:10.37,2013-01-18 12:53:00,
2013-01-18 06:58:00,27.0,25.2,30.62,NNE,24,0.0,0.0,93,0.00,CLR,,0.00,WeatherDisplay:10.37,2013-01-18 12:58:00,
2013-01-18 07:03:00,27.0,25.2,30.63,NNE,24,0.0,0.0,93,0.00,CLR,,0.00,WeatherDisplay:10.37,2013-01-18 13:03:00,
2013-01-18 07:08:00,27.0,25.2,30.63,NNE,24,0.0,0.0,93,0.00,CLR,,0.00,WeatherDisplay:10.37,2013-01-18 13:08:00,
2013-01-18 07:14:00,27.0,25.2,30.63,NNE,24,0.0,0.0,93,0.00,CLR,,0.00,WeatherDisplay:10.37,2013-01-18 13:14:00,
2013-01-18 07:19:00,26.9,25.1,30.63,NNE,24,0.0,0.0,93,0.00,CLR,,0.00,WeatherDisplay:10.37,2013-01-18 13:19:00,
2013-01-18 07:24:00,26.9,25.1,30.63,NNE,24,0.0,0.0,93,0.00,CLR,,0.00,WeatherDisplay:10.37,2013-01-18 13:24:00,
2013-01-18 07:29:00,26.9,25.1,30.64,NNE,24,0.0,0.0,93,0.00,CLR,,0.00,WeatherDisplay:10.37,2013-01-18 13:29:00,
2013-01-18 07:34:00,27.3,25.8,30.64,NNE,24,0.0,0.0,94,0.00,CLR,,0.00,WeatherDisplay:10.37,2013-01-18 13:34:00,
2013-01-18 07:39:00,28.1,26.6,30.64,NNE,24,0.0,0.0,94,0.00,CLR,,0.00,WeatherDisplay:10.37,2013-01-18 13:39:00,
2013-01-18 07:44:00,28.8,27.3,30.64,NNE,24,0.0,0.0,94,0.00,CLR,,0.00,WeatherDisplay:10.37,2013-01-18 13:44:00,
2013-01-18 07:49:00,29.3,28.0,30.64,NNE,24,0.0,0.0,95,0.00,CLR,,0.00,WeatherDisplay:10.37,2013-01-18 13:49:00,
2013-01-18 07:54:00,29.5,28.2,30.64,NNE,24,0.0,0.0,95,0.00,CLR,,0.00,WeatherDisplay:10.37,2013-01-18 13:54:00,
2013-01-18 07:59:00,30.4,29.1,30.64,NNE,24,0.0,0.0,95,0.00,CLR,,0.00,WeatherDisplay:10.37,2013-01-18 13:59:00,
2013-01-18 08:04:00,31.0,29.7,30.65,NNE,24,0.0,0.0,95,0.00,CLR,,0.00,WeatherDisplay:10.37,2013-01-18 14:04:00,
2013-01-18 08:09:00,31.2,29.9,30.65,NNE,24,0.0,0.0,95,0.00,CLR,,0.00,WeatherDisplay:10.37,2013-01-18 14:09:00,
2013-01-18 08:14:00,31.8,30.5,30.65,NNE,24,0.0,0.0,95,0.00,CLR,,0.00,WeatherDisplay:10.37,2013-01-18 14:14:00,
2013-01-18 08:19:00,32.7,31.4,30.66,NNE,24,0.0,0.0,95,0.00,CLR,,0.00,WeatherDisplay:10.37,2013-01-18 14:19:00,
2013-01-18 08:24:00,33.5,32.2,30.66,NNE,24,0.0,0.0,95,0.00,CLR,,0.00,WeatherDisplay:10.37,2013-01-18 14:24:00,
2013-01-18 08:29:00,34.3,33.0,30.66,NNE,24,0.0,0.0,95,0.00,CLR,,0.00,WeatherDisplay:10.37,2013-01-18 14:29:00,
2013-01-18 08:34:00,35.2,33.9,30.66,NNE,24,0.0,0.0,95,0.00,CLR,,0.00,WeatherDisplay:10.37,2013-01-18 14:34:00,
2013-01-18 08:39:00,35.8,34.0,30.66,NNE,24,0.0,0.0,93,0.00,CLR,,0.00,WeatherDisplay:10.37,2013-01-18 14:39:00,
2013-01-18 08:44:00,36.0,33.1,30.66,East,92,1.2,1.2,89,0.00,CLR,,0.00,WeatherDisplay:10.37,2013-01-18 14:44:00,
2013-01-18 08:49:00,36.5,32.7,30.66,NNE,12,3.5,3.5,86,0.00,CLR,,0.00,WeatherDisplay:10.37,2013-01-18 14:49:00,
2013-01-18 08:54:00,37.0,33.2,30.66,NNE,16,3.5,3.5,86,0.00,CLR,,0.00,WeatherDisplay:10.37,2013-01-18 14:54:00,
2013-01-18 08:59:00,37.5,32.8,30.66,NE,44,1.2,0.0,83,0.00,CLR,,0.00,WeatherDisplay:10.37,2013-01-18 14:59:00,
2013-01-18 09:04:00,37.8,32.5,30.66,NNE,15,1.2,1.2,81,0.00,CLR,,0.00,WeatherDisplay:10.37,2013-01-18 15:04:00,
2013-01-18 09:09:00,37.9,31.0,30.67,ESE,107,1.2,0.0,76,0.00,CLR,,0.00,WeatherDisplay:10.37,2013-01-18 15:09:00,
2013-01-18 09:14:00,38.2,31.0,30.67,ENE,75,2.3,2.3,75,0.00,CLR,,0.00,WeatherDisplay:10.37,2013-01-18 15:14:00,
2013-01-18 09:19:00,38.5,32.2,30.68,East,94,2.3,2.3,78,0.00,CLR,,0.00,WeatherDisplay:10.37,2013-01-18 15:19:00,
2013-01-18 09:24:00,38.9,31.3,30.68,NE,53,2.3,2.3,74,0.00,CLR,,0.00,WeatherDisplay:10.37,2013-01-18 15:24:00,
2013-01-18 09:29:00,39.2,31.9,30.68,NNE,12,3.5,3.5,75,0.00,CLR,,0.00,WeatherDisplay:10.37,2013-01-18 15:29:00,
2013-01-18 09:34:00,39.3,31.0,30.68,NE,46,3.5,3.5,72,0.00,CLR,,0.00,WeatherDisplay:10.37,2013-01-18 15:34:00,
2013-01-18 09:39:00,39.6,30.6,30.68,ENE,62,3.5,3.5,70,0.00,CLR,,0.00,WeatherDisplay:10.37,2013-01-18 15:39:00,
2013-01-18 09:44:00,39.9,30.5,30.68,SE,130,3.5,3.5,69,0.00,CLR,,0.00,WeatherDisplay:10.37,2013-01-18 15:44:00,
2013-01-18 09:49:00,40.2,31.2,30.68,ESE,103,2.3,2.3,70,0.00,CLR,,0.00,WeatherDisplay:10.37,2013-01-18 15:49:00,
2013-01-18 09:54:00,40.2,30.8,30.68,SE,133,2.3,2.3,69,0.00,CLR,,0.00,WeatherDisplay:10.37,2013-01-18 15:54:00,
2013-01-18 09:59:00,40.8,32.1,30.68,ENE,77,2.3,2.3,71,0.00,CLR,,0.00,WeatherDisplay:10.37,2013-01-18 15:59:00,
2013-01-18 10:04:00,41.3,32.6,30.68,NNE,26,3.5,3.5,71,0.00,CLR,,0.00,WeatherDisplay:10.37,2013-01-18 16:04:00,
2013-01-18 10:09:00,41.9,31.4,30.68,NE,44,2.3,2.3,66,0.00,CLR,,0.00,WeatherDisplay:10.37,2013-01-18 16:09:00,
2013-01-18 10:14:00,41.6,30.7,30.68,ESE,115,4.6,4.6,65,0.00,CLR,,0.00,WeatherDisplay:10.37,2013-01-18 16:14:00,
2013-01-18 10:19:00,41.8,30.5,30.68,ESE,111,1.0,0.0,64,0.00,CLR,,0.00,WeatherDisplay:10.37,2013-01-18 16:19:00,
2013-01-18 10:24:00,42.2,30.5,30.69,SSE,156,3.5,3.5,63,0.00,CLR,,0.00,WeatherDisplay:10.37,2013-01-18 16:24:00,
2013-01-18 10:29:00,42.5,31.2,30.69,SSE,156,3.5,3.5,64,0.00,CLR,,0.00,WeatherDisplay:10.37,2013-01-18 16:29:00,
2013-01-18 10:34:00,42.6,29.7,30.69,SW,226,1.2,1.2,60,0.00,CLR,,0.00,WeatherDisplay:10.37,2013-01-18 16:34:00,
2013-01-18 10:39:00,42.9,30.4,30.68,South,190,1.2,1.2,61,0.00,CLR,,0.00,WeatherDisplay:10.37,2013-01-18 16:39:00,
2013-01-18 10:44:00,42.9,29.1,30.68,SW,221,0.0,0.0,58,0.00,CLR,,0.00,WeatherDisplay:10.37,2013-01-18 16:44:00,
2013-01-18 10:49:00,43.1,29.3,30.68,SSE,148,0.0,0.0,58,0.00,CLR,,0.00,WeatherDisplay:10.37,2013-01-18 16:49:00,
2013-01-18 10:54:00,43.3,29.5,30.68,SE,139,1.2,0.0,58,0.00,CLR,,0.00,WeatherDisplay:10.37,2013-01-18 16:54:00,
2013-01-18 10:59:00,44.1,33.1,30.67,NNE,32,0.0,0.0,65,0.00,CLR,,0.00,WeatherDisplay:10.37,2013-01-18 16:59:00,
2013-01-18 11:04:00,44.6,30.3,30.67,SSW,205,3.5,3.5,57,0.00,CLR,,0.00,WeatherDisplay:10.37,2013-01-18 17:04:00,
2013-01-18 11:09:00,44.5,29.3,30.67,SSW,196,3.5,3.5,55,0.00,CLR,,0.00,WeatherDisplay:10.37,2013-01-18 17:09:00,
2013-01-18 11:14:00,44.3,30.0,30.67,SE,125,1.2,1.2,57,0.00,CLR,,0.00,WeatherDisplay:10.37,2013-01-18 17:14:00,
2013-01-18 11:19:00,44.3,31.7,30.66,NE,48,0.0,0.1,61,0.00,CLR,,0.00,WeatherDisplay:10.37,2013-01-18 17:19:00,
2013-01-18 11:24:00,44.3,30.0,30.66,East,95,4.6,4.6,57,0.00,CLR,,0.00,WeatherDisplay:10.37,2013-01-18 17:24:00,
2013-01-18 11:29:00,44.3,30.0,30.66,ESE,107,3.0,3.0,57,0.00,CLR,,0.00,WeatherDisplay:10.37,2013-01-18 17:29:00,
2013-01-18 11:34:00,44.5,29.8,30.66,ENE,77,3.5,3.5,56,0.00,CLR,,0.00,WeatherDisplay:10.37,2013-01-18 17:34:00,
2013-01-18 11:39:00,44.6,31.1,30.65,ENE,77,0.0,0.0,59,0.00,CLR,,0.00,WeatherDisplay:10.37,2013-01-18 17:39:00,
2013-01-18 11:44:00,45.5,31.6,30.65,NNE,12,3.5,3.5,58,0.00,CLR,,0.00,WeatherDisplay:10.37,2013-01-18 17:44:00,
2013-01-18 11:49:00,46.5,33.4,30.64,ESE,109,3.5,3.5,60,0.00,CLR,,0.00,WeatherDisplay:10.37,2013-01-18 17:49:00,
2013-01-18 11:54:00,46.2,30.0,30.64,SSE,159,1.2,1.2,53,0.00,CLR,,0.00,WeatherDisplay:10.37,2013-01-18 17:54:00,
2013-01-18 11:59:00,46.4,29.7,30.64,SW,229,3.5,3.5,52,0.00,CLR,,0.00,WeatherDisplay:10.37,2013-01-18 17:59:00,
2013-01-18 12:04:00,46.4,31.1,30.64,NE,48,0.0,0.0,55,0.00,CLR,,0.00,WeatherDisplay:10.37,2013-01-18 18:04:00,
2013-01-18 12:09:00,46.8,31.0,30.63,NE,48,1.2,0.0,54,0.00,CLR,,0.00,WeatherDisplay:10.37,2013-01-18 18:09:00,
2013-01-18 12:14:00,47.4,31.6,30.63,NE,48,0.0,0.0,54,0.00,CLR,,0.00,WeatherDisplay:10.37,2013-01-18 18:14:00,
2013-01-18 12:19:00,47.1,29.4,30.63,ESE,113,2.3,0.0,50,0.00,CLR,,0.00,WeatherDisplay:10.37,2013-01-18 18:19:00,
2013-01-18 12:24:00,47.1,29.4,30.63,SE,130,3.5,3.5,50,0.00,CLR,,0.00,WeatherDisplay:10.37,2013-01-18 18:24:00,
2013-01-18 12:29:00,47.4,30.2,30.62,SW,229,1.2,1.2,51,0.00,CLR,,0.00,WeatherDisplay:10.37,2013-01-18 18:29:00,
2013-01-18 12:34:00,47.6,28.9,30.62,SSW,197,1.2,1.2,48,0.00,CLR,,0.00,WeatherDisplay:10.37,2013-01-18 18:34:00,
2013-01-18 12:39:00,47.3,30.1,30.61,SSW,205,3.5,3.5,51,0.00,CLR,,0.00,WeatherDisplay:10.37,2013-01-18 18:39:00,
2013-01-18 12:44:00,47.7,30.0,30.61,SSW,205,1.0,0.0,50,0.00,CLR,,0.00,WeatherDisplay:10.37,2013-01-18 18:44:00,
2013-01-18 12:49:00,48.3,30.0,30.61,SE,145,0.0,0.0,49,0.00,CLR,,0.00,WeatherDisplay:10.37,2013-01-18 18:49:00,
2013-01-18 12:54:00,48.5,28.6,30.61,SSE,165,2.3,2.3,46,0.00,CLR,,0.00,WeatherDisplay:10.37,2013-01-18 18:54:00,
2013-01-18 12:59:00,48.8,30.5,30.61,SSW,199,0.0,0.0,49,0.00,CLR,,0.00,WeatherDisplay:10.37,2013-01-18 18:59:00,
2013-01-18 13:04:00,49.1,27.5,30.61,SSW,198,0.0,0.0,43,0.00,CLR,,0.00,WeatherDisplay:10.37,2013-01-18 19:04:00,
2013-01-18 13:09:00,49.4,29.5,30.61,South,171,0.0,0.0,46,0.00,CLR,,0.00,WeatherDisplay:10.37,2013-01-18 19:09:00,
2013-01-18 13:14:00,50.1,28.4,30.60,ESE,119,1.0,1.0,43,0.00,CLR,,0.00,WeatherDisplay:10.37,2013-01-18 19:14:00,
2013-01-18 13:19:00,49.9,27.1,30.60,SE,124,3.0,3.0,41,0.00,CLR,,0.00,WeatherDisplay:10.37,2013-01-18 19:19:00,
2013-01-18 13:24:00,49.8,26.4,30.60,ESE,123,1.2,1.2,40,0.00,CLR,,0.00,WeatherDisplay:10.37,2013-01-18 19:24:00,
2013-01-18 13:29:00,49.6,24.4,30.60,ESE,123,2.3,0.0,37,0.00,CLR,,0.00,WeatherDisplay:10.37,2013-01-18 19:29:00,
2013-01-18 13:34:00,50.1,25.5,30.60,SE,124,0.0,0.0,38,0.00,CLR,,0.00,WeatherDisplay:10.37,2013-01-18 19:34:00,
2013-01-18 13:39:00,50.4,24.4,30.60,SE,124,0.0,0.1,36,0.00,CLR,,0.00,WeatherDisplay:10.37,2013-01-18 19:39:00,
2013-01-18 13:44:00,51.0,24.3,30.59,ESE,123,0.0,0.1,35,0.00,CLR,,0.00,WeatherDisplay:10.37,2013-01-18 19:44:00,
2013-01-18 19:09:00,34.4,28.9,30.59,WSW,238,5.0,0.0,80,0.00,CLR,,0.00,WeatherDisplay:10.37,2013-01-19 01:09:00,
2013-01-18 19:14:00,34.3,28.8,30.59,WSW,238,0.0,0.0,80,0.00,CLR,,0.00,WeatherDisplay:10.37,2013-01-19 01:14:00,
2013-01-18 19:19:00,34.1,28.6,30.59,WSW,238,0.0,0.0,80,0.00,CLR,,0.00,WeatherDisplay:10.37,2013-01-19 01:19:00,
2013-01-18 19:24:00,33.8,28.3,30.59,WSW,238,0.0,0.0,80,0.00,CLR,,0.00,WeatherDisplay:10.37,2013-01-19 01:24:00,
2013-01-18 19:29:00,33.7,28.2,30.58,WSW,238,0.0,0.0,80,0.00,CLR,,0.00,WeatherDisplay:10.37,2013-01-19 01:29:00,
2013-01-18 19:34:00,33.5,28.0,30.58,WSW,238,0.0,0.0,80,0.00,CLR,,0.00,WeatherDisplay:10.37,2013-01-19 01:34:00,
2013-01-18 19:39:00,33.2,28.0,30.58,WSW,238,0.0,0.0,81,0.00,CLR,,0.00,WeatherDisplay:10.37,2013-01-19 01:39:00,
2013-01-18 19:44:00,33.1,27.9,30.58,WSW,238,0.0,0.0,81,0.00,CLR,,0.00,WeatherDisplay:10.37,2013-01-19 01:44:00,
2013-01-18 19:49:00,32.8,27.9,30.58,WSW,238,0.0,0.0,82,0.00,CLR,,0.00,WeatherDisplay:10.37,2013-01-19 01:49:00,
2013-01-18 19:54:00,32.7,27.8,30.58,WSW,238,0.0,0.0,82,0.00,CLR,,0.00,WeatherDisplay:10.37,2013-01-19 01:54:00,
2013-01-18 19:59:00,32.5,27.9,30.58,WSW,238,0.0,0.0,83,0.00,CLR,,0.00,WeatherDisplay:10.37,2013-01-19 01:59:00,
2013-01-18 20:04:00,32.4,27.8,30.58,WSW,238,0.0,0.0,83,0.00,CLR,,0.00,WeatherDisplay:10.37,2013-01-19 02:04:00,
2013-01-18 20:09:00,32.4,28.1,30.58,WSW,238,0.0,0.0,84,0.00,CLR,,0.00,WeatherDisplay:10.37,2013-01-19 02:09:00,
2013-01-18 20:14:00,32.2,27.9,30.58,WSW,238,0.0,0.0,84,0.00,CLR,,0.00,WeatherDisplay:10.37,2013-01-19 02:14:00,
2013-01-18 20:19:00,32.1,27.8,30.58,WSW,238,0.0,0.0,84,0.00,CLR,,0.00,WeatherDisplay:10.37,2013-01-19 02:19:00,
2013-01-18 20:24:00,31.9,27.6,30.58,WSW,238,0.0,0.0,84,0.00,CLR,,0.00,WeatherDisplay:10.37,2013-01-19 02:24:00,
2013-01-18 20:29:00,31.9,27.9,30.58,WSW,238,0.0,0.0,85,0.00,CLR,,0.00,WeatherDisplay:10.37,2013-01-19 02:29:00,
2013-01-18 20:34:00,31.9,27.9,30.57,WSW,238,0.0,0.0,85,0.00,CLR,,0.00,WeatherDisplay:10.37,2013-01-19 02:34:00,
2013-01-18 20:39:00,31.9,27.9,30.58,WSW,238,0.0,0.0,85,0.00,CLR,,0.00,WeatherDisplay:10.37,2013-01-19 02:39:00,
2013-01-18 20:44:00,31.8,27.8,30.57,WSW,238,0.0,0.0,85,0.00,CLR,,0.00,WeatherDisplay:10.37,2013-01-19 02:44:00,
2013-01-18 20:49:00,31.6,27.6,30.57,WSW,238,0.0,0.0,85,0.00,CLR,,0.00,WeatherDisplay:10.37,2013-01-19 02:49:00,
2013-01-18 20:54:00,31.5,27.8,30.57,WSW,238,0.0,0.0,86,0.00,CLR,,0.00,WeatherDisplay:10.37,2013-01-19 02:54:00,
2013-01-18 21:00:00,31.3,27.6,30.57,WSW,238,0.0,0.0,86,0.00,CLR,,0.00,WeatherDisplay:10.37,2013-01-19 03:00:00,
2013-01-18 21:05:00,31.2,27.5,30.57,WSW,238,0.0,0.0,86,0.00,CLR,,0.00,WeatherDisplay:10.37,2013-01-19 03:05:00,
2013-01-18 21:10:00,31.2,27.5,30.57,WSW,238,0.0,0.0,86,0.00,CLR,,0.00,WeatherDisplay:10.37,2013-01-19 03:10:00,
2013-01-18 21:15:00,31.0,27.6,30.57,WSW,238,0.0,0.0,87,0.00,CLR,,0.00,WeatherDisplay:10.37,2013-01-19 03:15:00,
2013-01-18 21:20:00,30.9,27.5,30.57,WSW,238,0.0,0.0,87,0.00,CLR,,0.00,WeatherDisplay:10.37,2013-01-19 03:20:00,
2013-01-18 21:25:00,30.9,27.5,30.57,WSW,238,0.0,0.0,87,0.00,CLR,,0.00,WeatherDisplay:10.37,2013-01-19 03:25:00,
2013-01-18 21:30:00,30.7,27.6,30.57,WSW,238,0.0,0.0,88,0.00,CLR,,0.00,WeatherDisplay:10.37,2013-01-19 03:30:00,
2013-01-18 21:35:00,30.6,27.5,30.57,WSW,238,0.0,0.0,88,0.00,CLR,,0.00,WeatherDisplay:10.37,2013-01-19 03:35:00,
2013-01-18 21:40:00,30.6,27.5,30.57,WSW,238,0.0,0.0,88,0.00,CLR,,0.00,WeatherDisplay:10.37,2013-01-19 03:40:00,
2013-01-18 21:45:00,30.6,27.5,30.57,WSW,238,0.0,0.0,88,0.00,CLR,,0.00,WeatherDisplay:10.37,2013-01-19 03:45:00,
2013-01-18 21:50:00,30.4,27.3,30.57,WSW,238,0.0,0.0,88,0.00,CLR,,0.00,WeatherDisplay:10.37,2013-01-19 03:50:00,
2013-01-18 21:55:00,30.4,27.5,30.57,WSW,238,0.0,0.0,89,0.00,CLR,,0.00,WeatherDisplay:10.37,2013-01-19 03:55:00,
2013-01-18 22:00:00,30.3,27.2,30.57,WSW,238,0.0,0.0,88,0.00,CLR,,0.00,WeatherDisplay:10.37,2013-01-19 04:00:00,
2013-01-18 22:05:00,30.1,27.3,30.57,WSW,238,0.0,0.0,89,0.00,CLR,,0.00,WeatherDisplay:10.37,2013-01-19 04:05:00,
2013-01-18 22:10:00,29.8,27.0,30.57,WSW,238,0.0,0.0,89,0.00,CLR,,0.00,WeatherDisplay:10.37,2013-01-19 04:10:00,
2013-01-18 22:15:00,29.7,26.9,30.56,WSW,238,0.0,0.0,89,0.00,CLR,,0.00,WeatherDisplay:10.37,2013-01-19 04:15:00,
2013-01-18 22:20:00,29.7,26.9,30.56,WSW,238,0.0,0.0,89,0.00,CLR,,0.00,WeatherDisplay:10.37,2013-01-19 04:20:00,
2013-01-18 22:25:00,29.7,26.9,30.56,WSW,238,0.0,0.0,89,0.00,CLR,,0.00,WeatherDisplay:10.37,2013-01-19 04:25:00,
2013-01-18 22:30:00,29.5,26.7,30.55,WSW,238,0.0,0.0,89,0.00,CLR,,0.00,WeatherDisplay:10.37,2013-01-19 04:30:00,
2013-01-18 22:35:00,29.4,26.6,30.55,WSW,238,0.0,0.0,89,0.00,CLR,,0.00,WeatherDisplay:10.37,2013-01-19 04:35:00,
2013-01-18 22:40:00,29.4,26.8,30.55,WSW,238,0.0,0.0,90,0.00,CLR,,0.00,WeatherDisplay:10.37,2013-01-19 04:40:00,
2013-01-18 22:45:00,29.4,26.8,30.55,WSW,238,0.0,0.0,90,0.00,CLR,,0.00,WeatherDisplay:10.37,2013-01-19 04:45:00,
2013-01-18 22:50:00,29.1,26.5,30.55,WSW,238,0.0,0.0,90,0.00,CLR,,0.00,WeatherDisplay:10.37,2013-01-19 04:50:00,
2013-01-18 22:55:00,29.0,26.4,30.55,WSW,238,0.0,0.0,90,0.00,CLR,,0.00,WeatherDisplay:10.37,2013-01-19 04:55:00,
2013-01-18 23:00:00,29.0,26.4,30.55,WSW,238,0.0,0.0,90,0.00,CLR,,0.00,WeatherDisplay:10.37,2013-01-19 05:00:00,
2013-01-18 23:01:00,29.0,26.4,30.55,WSW,238,0.0,0.0,90,0.00,CLR,,0.00,WeatherDisplay:10.37,2013-01-19 05:01:00,
2013-01-18 23:03:00,28.8,26.2,30.55,WSW,238,0.0,0.0,90,0.00,CLR,,0.00,WeatherDisplay:10.37,2013-01-19 05:03:00,
2013-01-18 23:05:00,53.2,30.1,30.45,SW,233,2.0,14.0,41,0.00,CLR,,0.01,WeatherDisplay:10.37,2013-01-19 05:05:00,
2013-01-18 23:08:00,28.8,26.2,30.55,WSW,238,0.0,0.0,90,0.00,CLR,,0.00,WeatherDisplay:10.37,2013-01-19 05:08:00,
2013-01-18 23:10:00,53.1,30.6,30.45,SSW,204,1.0,9.0,42,0.00,CLR,,0.01,WeatherDisplay:10.37,2013-01-19 05:10:00,
2013-01-18 23:13:00,28.8,26.5,30.55,WSW,238,0.0,0.0,91,0.00,CLR,,0.00,WeatherDisplay:10.37,2013-01-19 05:13:00,
2013-01-18 23:15:00,53.5,30.4,30.45,SSW,203,1.0,7.0,41,0.00,CLR,,0.01,WeatherDisplay:10.37,2013-01-19 05:15:00,
2013-01-18 23:19:00,28.7,26.4,30.55,WSW,238,0.0,0.0,91,0.00,CLR,,0.00,WeatherDisplay:10.37,2013-01-19 05:19:00,
2013-01-18 23:20:00,53.8,29.4,30.44,SW,217,2.0,6.0,39,0.00,CLR,,0.01,WeatherDisplay:10.37,2013-01-19 05:20:00,
2013-01-18 23:24:00,28.5,26.2,30.55,WSW,238,0.0,0.0,91,0.00,CLR,,0.00,WeatherDisplay:10.37,2013-01-19 05:24:00,
2013-01-18 23:25:00,53.9,30.7,30.44,SSW,195,1.0,5.0,41,0.00,CLR,,0.01,WeatherDisplay:10.37,2013-01-19 05:25:00,
2013-01-18 23:29:00,28.4,26.1,30.55,WSW,238,0.0,0.0,91,0.00,CLR,,0.00,WeatherDisplay:10.37,2013-01-19 05:29:00,
2013-01-18 23:30:00,54.2,29.1,30.44,SW,227,2.0,6.0,38,0.00,CLR,,0.01,WeatherDisplay:10.37,2013-01-19 05:30:00,
2013-01-18 23:34:00,28.4,26.1,30.55,WSW,238,0.0,0.0,91,0.00,CLR,,0.00,WeatherDisplay:10.37,2013-01-19 05:34:00,
2013-01-18 23:35:00,54.1,30.3,30.42,SW,236,2.0,6.0,40,0.00,CLR,,0.01,WeatherDisplay:10.37,2013-01-19 05:35:00,
2013-01-18 23:39:00,28.2,25.9,30.55,WSW,238,0.0,0.0,91,0.00,CLR,,0.00,WeatherDisplay:10.37,2013-01-19 05:39:00,
2013-01-18 23:40:00,54.2,31.6,30.42,SW,233,1.0,5.0,42,0.00,CLR,,0.01,WeatherDisplay:10.37,2013-01-19 05:40:00,
2013-01-18 23:44:00,28.2,25.9,30.55,WSW,238,0.0,0.0,91,0.00,CLR,,0.00,WeatherDisplay:10.37,2013-01-19 05:44:00,
2013-01-18 23:45:00,54.7,30.8,30.42,SW,236,1.0,3.0,40,0.00,CLR,,0.01,WeatherDisplay:10.37,2013-01-19 05:45:00,
2013-01-18 23:49:00,28.1,25.8,30.55,WSW,238,0.0,0.0,91,0.00,CLR,,0.00,WeatherDisplay:10.37,2013-01-19 05:49:00,
2013-01-18 23:50:00,55.0,31.1,30.41,SW,236,1.0,5.0,40,0.00,CLR,,0.01,WeatherDisplay:10.37,2013-01-19 05:50:00,
2013-01-18 23:54:00,28.2,26.2,30.54,WSW,238,0.0,0.0,92,0.00,CLR,,0.00,WeatherDisplay:10.37,2013-01-19 05:54:00,
2013-01-18 23:55:00,54.8,30.9,30.41,South,185,2.0,7.0,40,0.00,CLR,,0.01,WeatherDisplay:10.37,2013-01-19 05:55:00,
2013-01-18 23:59:00,28.2,26.2,30.54,WSW,238,0.0,0.0,92,0.00,CLR,,0.00,WeatherDisplay:10.37,2013-01-19 05:59:00,